Weather in Melikhovo

Russia / Kaluga Oblast     53°36′06″N   35°35′56″E
В апреле 2022 года жителям России запретили посещать сайт meteo.paraplan.net по решению Генеральной прокуратуры. Аудитория сайта уменьшилась в 10 раз. Владельцы сайта не видят смысла в поддержке погодного сервера в таких условиях. Сайт будет закрыт в октябре.
temp.,
°C
wind,
m/s
gust,
m/s
humid.,
%
clouds,
%
prec.,
mm/h
press.,
hPa
HPBL,
m
5 october, wed
wed500:00+6ssw4792100 0.3 10101008
03:00+6sw3794100 1.3 10111047
06:00+6wsw4793100 1.1 10121053
09:00+7w489281 1.4 1014632
12:00+7wnw478855 0.5 1016811
15:00+8w4787100 0.9 1018982
18:00+7w389292 0.3 1019942
21:00+7w3109299 0.4 1020496
6 october, thu
thu600:00+6w3998100 0.1 1021327
03:00+7wsw3797100 0.3 1021382
06:00+7sw279799 0.0 1021255
09:00+8wsw279598 0.0 1021269
12:00+9wsw3692100 0.0 1021294
15:00+13sw468031 0.0 1020621
18:00+10sw24920 0.0 101977
21:00+9wsw312935 0.0 1020303
7 october, fri
fri700:00+9wsw41295100 0.0 1020326
03:00+9w4129729 0.0 1020410
06:00+10wnw51089100 0.0 1022599
09:00+10wnw410820 0.0 1023636
12:00+14wnw47640 0.0 1025823
15:00+14nw46622 0.0 10251016
18:00+9nw25880 0.0 1026110
21:00+7wsw22935 0.0 102722
8 october, sat
sat800:00+7wsw23962 0.0 102754
03:00+6wsw23970 0.0 102746
06:00+6sw24972 0.0 102772
09:00+9sw25875 0.0 1026206
12:00+14sw35645 0.0 1025647
15:00+15ssw3659100 0.0 1023873
18:00+10s2779100 0.0 1022138
21:00+8ssw3987100 0.0 1022191
9 october, sun
sun900:00+8ssw31186100 0.0 1021290
03:00+7ssw31188100 0.0 1020274
06:00+7ssw31087100 0.0 1019255
09:00+9ssw31177100 0.0 1018374
12:00+12sw4666100 0.0 1017639
15:00+9wnw2694100 1.0 1018287
18:00+9wsw2796100 1.3 1019317
21:00+7nw310955 1.5 1021410